Regional Weather Roundup
Issued by NWS

Home | Current Version | Previous Version | Graphics & Text | Print | Product List | Glossary On
Versions: 1 2 3 4 5 6 7 8 9 10 11 12 13 14 15 16 17 18 19 20 21 22 23 24 25 26 27 28 29 30 31 32 33 34 35 36 37 38 39 40 41 42 43 44 45 46 47 48 49 50
940
ASUS45 KCYS 262210
RWRWY

WYOMING REGIONAL WEATHER ROUNDUP
NATIONAL WEATHER SERVICE CHEYENNE WY
400 PM MDT THU MAY 26 2016

NOTE:  "FAIR" INDICATES FEW OR NO CLOUDS BELOW 12,000 FEET
WITH NO SIGNIFICANT WEATHER AND/OR OBSTRUCTIONS TO VISIBILITY.

WYZ001-262300-
YELLOWSTONE NATIONAL PARK

CITY           SKY/WX    TMP DP  RH WIND       PRES   REMARKS
LK YELLOWSTONE   N/A     47  35  63 CALM      30.07F
W YELLOWSTONE  NOT AVBL

$$
WYZ002>013-054>058-071-098>099-262300-
NORTHERN WYOMING

CITY           SKY/WX    TMP DP  RH WIND       PRES   REMARKS
JACKSON        PTSUNNY   59  30  33 W7        29.98F
CODY           FAIR      59  45  58 N9        29.96R
GREYBULL       FAIR      59  43  55 CALM      29.93F
WORLAND        PTSUNNY   55  44  66 N16G26    29.95R
SHERIDAN       PTSUNNY   58  44  60 NW13      29.92F
BUFFALO        FAIR      58  41  53 N17       29.95S
GILLETTE       FAIR      62  38  40 W12       29.88F
HULETT         MOCLDY    63  36  36 W9        29.89F
NEWCASTLE      FAIR      66  28  24 NW16G22   29.89F

$$
WYZ014>020-022>026-101>103-262300-
CENTRAL WYOMING

CITY           SKY/WX    TMP DP  RH WIND       PRES   REMARKS
BIG PINEY      PTSUNNY   58  27  30 N8        29.99F
PINEDALE       FAIR      57  30  35 W12       29.99F
DUBOIS         FAIR      61  23  23 NW14G24   29.96F
LANDER         FAIR      65  34  31 E7        29.89F
RIVERTON       FAIR      64  29  26 E3        29.92F
CASPER         FAIR      65  34  31 N10       29.91F
DOUGLAS          N/A    N/A N/A N/A MISG      29.90F

$$
WYZ021-027>030-104>119-262300-
SOUTHERN WYOMING

CITY           SKY/WX    TMP DP  RH WIND       PRES   REMARKS
EVANSTON       PTSUNNY   56  33  42 VRB6      30.02F
KEMMERER         N/A     52  32  46 SW9       30.02S
FORT BRIDGER   MOCLDY    61  34  36 W13       30.03F
ROCK SPRINGS   PTSUNNY   60  29  30 NW15      29.95F
DIXON          FAIR      62  28  28 NW5       29.94F
RAWLINS        FAIR      62  27  26 NW9       29.94F
SARATOGA       CLOUDY    57  30  35 W9        29.95F
LARAMIE        CLOUDY    43  37  79 E14       29.99R
CHEYENNE       LGT RAIN  47  43  86 NW5       29.99F FOG
TORRINGTON     PTSUNNY   60  37  42 S15       29.88F
PINE BLUFFS    CLOUDY    50  41  71 NW22      29.95S THUNDER

$$




USA.gov is the U.S. government's official web portal to all federal, state and local government web resources and services.